Torna al catalogo

THORAD AGENA D DEB

AttivoPO
NORAD 19238·DEBRIS·🇺🇸 United States

Lanciato Apr 8, 1970 da Vandenberg Space Force Base

Loading…

Prossimi Passaggi (prossime 24 ore)

TLE

AggiornatoSource: Space-Track

Epoca: Sep 14, 2026, 11:56 UTC

1 19238U 70025PT  26257.49761376  .00000953  00000-0  95136-3 0  9996
2 19238  99.8692  94.9839 0041068 218.5763 171.0935 13.80449155952395

Traccia THORAD AGENA D DEB in tempo reale con AllMySat

Download on the App Store